DW2149 Weather Reports


Display with metric or nautical units.
time (UTC)temp
F
wind
direction
speed
MPH
gust
MPH
rain 1hr
in
rain 24hr
in
rain mn
in
humidity
%
barometer
mb
20260904010811 73 237 0.0 1.0 0.00 0.00 0.00 43 1010.4
20260904010601 73 237 0.0 2.0 0.00 0.00 0.00 42 1010.2
20260904010356 73 153 0.0 0.0 0.00 0.00 0.00 43 1010.2
20260904010143 73 153 0.0 2.0 0.00 0.00 0.00 42 1010.2
20260904005937 73 280 0.0 1.0 0.00 0.00 0.00 42 1010.2
20260904005544 73 280 0.0 3.0 0.00 0.00 0.00 41 1010.2
20260904005339 73 277 0.0 3.0 0.00 0.00 0.00 42 1010.3
20260904004949 74 273 0.0 3.0 0.00 0.00 0.00 41 1010.3
20260904004746 74 279 0.0 3.0 0.00 0.00 0.00 41 1010.2
20260904004541 74 215 0.0 2.0 0.00 0.00 0.00 41 1010.2
20260904004333 74 215 0.0 2.0 0.00 0.00 0.00 42 1010.2
20260904004126 74 215 0.0 5.0 0.00 0.00 0.00 41 1010.2
20260904003914 74 213 1.0 5.0 0.00 0.00 0.00 41 1010.2
20260904003707 74 198 1.0 5.0 0.00 0.00 0.00 41 1010.2
20260904003455 74 147 1.0 5.0 0.00 0.00 0.00 41 1010.2
20260904003252 75 216 1.0 5.0 0.00 0.00 0.00 41 1010.2
20260904003050 75 242 1.0 5.0 0.00 0.00 0.00 40 1010.3
20260904002844 75 216 1.0 5.0 0.00 0.00 0.00 41 1010.2
20260904002633 75 232 1.0 5.0 0.00 0.00 0.00 41 1010.2
20260904002422 74 340 1.0 6.0 0.00 0.00 0.00 40 1010.2
20260904002213 74 344 1.0 6.0 0.00 0.00 0.00 41 1010.2
20260904002007 74 268 0.0 6.0 0.00 0.00 0.00 41 1010.3
20260904001801 74 233 1.0 6.0 0.00 0.00 0.00 40 1010.3
20260904001559 74 233 0.0 6.0 0.00 0.00 0.00 40 1010.2
20260904001358 75 155 1.0 6.0 0.00 0.00 0.00 41 1010.2
20260904001002 75 306 1.0 6.0 0.00 0.00 0.00 41 1010.3
20260904000757 75 219 0.0 6.0 0.00 0.00 0.00 39 1010.3
20260904000545 75 281 0.0 6.0 0.00 0.00 0.00 39 1010.4
20260904000333 75 306 0.0 4.0 0.00 0.00 0.00 39 1010.3
20260904000122 76 214 0.0 0.0 0.00 0.00 0.00 40 1010.4
20260903235918 76 214 0.0 7.0 0.00 0.00 0.00 39 1010.4
20260903235711 76 214 0.0 7.0 0.00 0.00 0.00 39 1010.5
20260903235507 76 215 0.0 7.0 0.00 0.00 0.00 39 1010.5
20260903235300 76 223 0.0 7.0 0.00 0.00 0.00 38 1010.4
20260903235048 76 278 1.0 6.0 0.00 0.00 0.00 40 1010.5
20260903234846 76 278 1.0 6.0 0.00 0.00 0.00 39 1010.5
20260903234640 76 228 1.0 6.0 0.00 0.00 0.00 39 1010.5
20260903234433 75 217 0.0 6.0 0.00 0.00 0.00 39 1010.4
20260903234226 76 148 0.0 6.0 0.00 0.00 0.00 39 1010.4
20260903233837 76 211 0.0 3.0 0.00 0.00 0.00 40 1010.4
20260903233625 76 213 0.0 0.0 0.00 0.00 0.00 39 1010.4
20260903233423 76 213 0.0 7.0 0.00 0.00 0.00 40 1010.4
20260903233212 76 213 0.0 7.0 0.00 0.00 0.00 38 1010.5
20260903233010 77 329 1.0 7.0 0.00 0.00 0.00 39 1010.4
20260903232804 77 251 1.0 6.0 0.00 0.00 0.00 38 1010.5
20260903232555 77 264 1.0 6.0 0.00 0.00 0.00 38 1010.6
20260903232349 77 294 1.0 6.0 0.00 0.00 0.00 39 1010.6
20260903232146 77 225 1.0 6.0 0.00 0.00 0.00 38 1010.6
20260903231937 78 267 0.0 6.0 0.00 0.00 0.00 37 1010.5
20260903231732 78 216 0.0 6.0 0.00 0.00 0.00 38 1010.5
20260903231523 78 227 0.0 5.0 0.00 0.00 0.00 38 1010.5
20260903231313 77 227 0.0 5.0 0.00 0.00 0.00 39 1010.5
20260903231107 77 157 0.0 5.0 0.00 0.00 0.00 39 1010.6
20260903230902 77 283 0.0 5.0 0.00 0.00 0.00 38 1010.7
20260903230659 76 231 0.0 5.0 0.00 0.00 0.00 39 1010.7
20260903230450 76 284 0.0 5.0 0.00 0.00 0.00 39 1010.7
20260903230055 76 284 0.0 5.0 0.00 0.00 0.00 39 1010.7
20260903225843 76 286 1.0 5.0 0.00 0.00 0.00 38 1010.8
20260903225637 76 197 1.0 6.0 0.00 0.00 0.00 38 1010.8
20260903225430 76 210 1.0 6.0 0.00 0.00 0.00 40 1010.8
20260903225222 76 210 2.0 6.0 0.00 0.00 0.00 38 1010.9
20260903225015 77 210 1.0 6.0 0.00 0.00 0.00 38 1011.0
20260903224813 77 211 1.0 6.0 0.00 0.00 0.00 38 1010.9
20260903224604 77 161 1.0 6.0 0.00 0.00 0.00 37 1011.0
20260903224352 77 355 0.0 6.0 0.00 0.00 0.00 39 1011.0
20260903224143 77 323 0.0 6.0 0.00 0.00 0.00 39 1011.0
20260903223936 76 304 0.0 6.0 0.00 0.00 0.00 38 1011.0
20260903223726 76 284 0.0 5.0 0.00 0.00 0.00 39 1011.0
20260903223331 76 95 1.0 6.0 0.00 0.00 0.00 38 1011.1
20260903223119 77 207 1.0 6.0 0.00 0.00 0.00 38 1011.1
20260903222917 77 196 1.0 6.0 0.00 0.00 0.00 38 1011.2
20260903222709 77 219 1.0 6.0 0.00 0.00 0.00 40 1011.2
20260903222318 77 252 1.0 6.0 0.00 0.00 0.00 39 1011.2
20260903222117 77 219 1.0 6.0 0.00 0.00 0.00 38 1011.2
20260903221904 77 242 1.0 6.0 0.00 0.00 0.00 40 1011.3
20260903221656 77 244 1.0 6.0 0.00 0.00 0.00 38 1011.3
20260903221454 77 16 1.0 5.0 0.00 0.00 0.00 40 1011.4
20260903221251 76 288 1.0 6.0 0.00 0.00 0.00 40 1011.4
20260903221039 76 329 1.0 6.0 0.00 0.00 0.00 39 1011.4
20260903220647 76 261 1.0 6.0 0.00 0.00 0.00 40 1011.4
20260903220440 76 261 1.0 7.0 0.00 0.00 0.00 39 1011.6
20260903215859 76 228 1.0 7.0 0.00 0.00 0.00 39 1011.6
20260903215651 76 277 0.0 7.0 0.00 0.00 0.00 39 1011.6
20260903215439 76 211 0.0 7.0 0.00 0.00 0.00 38 1011.5
20260903215233 77 211 1.0 7.0 0.00 0.00 0.00 38 1011.7
20260903215020 77 266 1.0 7.0 0.00 0.00 0.00 39 1011.7
20260903214633 77 249 1.0 7.0 0.00 0.00 0.00 39 1011.7
20260903214422 76 213 0.0 5.0 0.00 0.00 0.00 40 1011.7
20260903214211 76 247 0.0 4.0 0.00 0.00 0.00 40 1011.6
20260903214003 76 15 0.0 4.0 0.00 0.00 0.00 40 1011.7
20260903213607 76 227 1.0 3.0 0.00 0.00 0.00 39 1011.7
20260903213401 76 227 0.0 3.0 0.00 0.00 0.00 40 1011.7
20260903213010 76 207 1.0 5.0 0.00 0.00 0.00 39 1011.7
20260903212759 76 207 1.0 3.0 0.00 0.00 0.00 40 1011.7
20260903212557 76 198 1.0 2.0 0.00 0.00 0.00 39 1011.8
20260903212354 76 198 1.0 5.0 0.00 0.00 0.00 38 1011.8
20260903212149 76 162 1.0 5.0 0.00 0.00 0.00 39 1011.7
20260903211937 76 213 0.0 5.0 0.00 0.00 0.00 39 1011.7
20260903211734 76 205 1.0 5.0 0.00 0.00 0.00 40 1011.7
20260903211532 76 172 1.0 5.0 0.00 0.00 0.00 40 1011.8
20260903211323 76 231 1.0 4.0 0.00 0.00 0.00 39 1011.7
20260903211119 76 242 1.0 4.0 0.00 0.00 0.00 40 1011.7
20260903210911 75 304 1.0 4.0 0.00 0.00 0.00 41 1011.7
20260903210700 74 345 1.0 4.0 0.00 0.00 0.00 42 1011.8
20260903210449 74 232 0.0 0.0 0.00 0.00 0.00 44 1011.8
20260903210244 74 231 1.0 5.0 0.00 0.00 0.00 44 1011.8
20260903210033 73 49 1.0 5.0 0.00 0.00 0.00 44 1011.8
20260903205824 73 84 1.0 5.0 0.00 0.00 0.00 42 1011.9
20260903205613 73 178 1.0 5.0 0.00 0.00 0.00 42 1012.0
20260903205402 74 157 1.0 5.0 0.00 0.00 0.00 41 1012.0
20260903205014 73 213 1.0 5.0 0.00 0.00 0.00 41 1011.9
20260903204806 73 202 1.0 6.0 0.00 0.00 0.00 43 1012.0
20260903204602 74 204 1.0 6.0 0.00 0.00 0.00 45 1012.0
20260903204358 74 202 1.0 6.0 0.00 0.00 0.00 43 1012.0
20260903204147 74 180 1.0 6.0 0.00 0.00 0.00 42 1012.0
20260903203939 73 302 0.0 6.0 0.00 0.00 0.00 45 1012.0
20260903203732 73 254 1.0 6.0 0.00 0.00 0.00 42 1012.0
20260903203524 72 254 1.0 6.0 0.00 0.00 0.00 43 1012.1
20260903203315 72 253 1.0 6.0 0.00 0.00 0.00 43 1012.0
20260903202926 73 204 1.0 6.0 0.00 0.00 0.00 44 1012.1
20260903202716 73 235 0.0 0.0 0.00 0.00 0.00 42 1012.0
20260903202507 73 218 1.0 5.0 0.00 0.00 0.00 44 1012.1
20260903202259 73 215 1.0 5.0 0.00 0.00 0.00 42 1012.2
20260903202048 72 258 1.0 5.0 0.00 0.00 0.00 43 1012.2
20260903201837 72 258 1.0 7.0 0.00 0.00 0.00 43 1012.1
20260903201631 73 267 1.0 7.0 0.00 0.00 0.00 42 1012.2
20260903201430 72 302 1.0 7.0 0.00 0.00 0.00 43 1012.2
20260903201220 72 257 1.0 7.0 0.00 0.00 0.00 44 1012.2
20260903201007 72 221 1.0 7.0 0.00 0.00 0.00 45 1012.2
20260903200801 72 207 2.0 7.0 0.00 0.00 0.00 44 1012.2
20260903200221 73 215 2.0 7.0 0.00 0.00 0.00 47 1012.3
20260903195831 73 186 1.0 5.0 0.00 0.00 0.00 44 1012.3
20260903195627 73 132 1.0 5.0 0.00 0.00 0.00 49 1012.3
20260903195421 73 175 1.0 5.0 0.00 0.00 0.00 43 1012.4
20260903195212 73 180 1.0 8.0 0.00 0.00 0.00 45 1012.4
20260903194959 73 223 1.0 8.0 0.00 0.00 0.00 43 1012.4
20260903194750 73 198 1.0 8.0 0.00 0.00 0.00 44 1012.3
20260903194546 73 252 1.0 8.0 0.00 0.00 0.00 42 1012.5
20260903194341 73 206 1.0 8.0 0.00 0.00 0.00 42 1012.4
20260903194134 73 205 2.0 8.0 0.00 0.00 0.00 41 1012.5
20260903193928 73 203 1.0 8.0 0.00 0.00 0.00 41 1012.5
20260903193538 74 200 1.0 8.0 0.00 0.00 0.00 42 1012.3
20260903193325 74 192 0.0 7.0 0.00 0.00 0.00 41 1012.3
20260903193112 74 225 0.0 7.0 0.00 0.00 0.00 41 1012.3
20260903192908 74 257 0.0 7.0 0.00 0.00 0.00 41 1012.4
20260903192705 73 257 1.0 7.0 0.00 0.00 0.00 41 1012.4
20260903192500 73 257 1.0 7.0 0.00 0.00 0.00 41 1012.4
20260903192253 73 257 1.0 7.0 0.00 0.00 0.00 42 1012.5
20260903192041 73 193 1.0 7.0 0.00 0.00 0.00 42 1012.6
20260903191837 73 229 1.0 7.0 0.00 0.00 0.00 42 1012.6
20260903191625 73 251 0.0 6.0 0.00 0.00 0.00 42 1012.5
20260903191420 73 251 0.0 6.0 0.00 0.00 0.00 42 1012.6
20260903191209 73 251 0.0 6.0 0.00 0.00 0.00 42 1012.7
20260903190957 72 248 0.0 6.0 0.00 0.00 0.00 43 1012.6
20260903190748 73 267 0.0 6.0 0.00 0.00 0.00 42 1012.7
20260903190546 72 227 0.0 5.0 0.00 0.00 0.00 43 1012.7
20260903190152 72 227 1.0 6.0 0.00 0.00 0.00 41 1012.7
20260903185948 72 226 1.0 6.0 0.00 0.00 0.00 42 1012.8
20260903185740 72 257 1.0 6.0 0.00 0.00 0.00 42 1012.7
20260903185536 72 249 1.0 6.0 0.00 0.00 0.00 41 1012.8
20260903185326 72 227 1.0 6.0 0.00 0.00 0.00 43 1012.8
20260903184937 72 226 1.0 6.0 0.00 0.00 0.00 43 1012.9
20260903184735 72 223 1.0 6.0 0.00 0.00 0.00 45 1013.0
20260903184525 71 217 1.0 6.0 0.00 0.00 0.00 45 1012.9
20260903184322 71 290 1.0 6.0 0.00 0.00 0.00 44 1013.0
20260903184111 71 280 0.0 5.0 0.00 0.00 0.00 45 1013.1
20260903183906 70 279 0.0 5.0 0.00 0.00 0.00 45 1013.1
20260903183655 70 46 0.0 3.0 0.00 0.00 0.00 47 1013.1
20260903183258 68 211 0.0 1.0 0.00 0.00 0.00 49 1013.2
20260903183045 68 211 1.0 0.0 0.00 0.00 0.00 49 1013.2
20260903182833 68 211 1.0 6.0 0.00 0.00 0.00 50 1013.2
20260903182628 68 211 1.0 6.0 0.00 0.00 0.00 49 1013.2
20260903182421 68 210 1.0 6.0 0.00 0.00 0.00 49 1013.3
20260903182219 67 208 0.0 6.0 0.00 0.00 0.00 49 1013.3
20260903182010 67 214 0.0 4.0 0.00 0.00 0.00 49 1013.3
20260903181757 67 185 0.0 3.0 0.00 0.00 0.00 50 1013.2
20260903181547 67 213 0.0 1.0 0.00 0.00 0.00 50 1013.2
20260903181342 67 213 0.0 5.0 0.00 0.00 0.00 49 1013.4
20260903181133 67 213 0.0 5.0 0.00 0.00 0.00 50 1013.3
20260903180929 67 213 0.0 5.0 0.00 0.00 0.00 50 1013.3
20260903180722 66 213 1.0 5.0 0.00 0.00 0.00 51 1013.4
20260903180329 66 214 0.0 5.0 0.00 0.00 0.00 51 1013.3
20260903180126 66 215 0.0 5.0 0.00 0.00 0.00 52 1013.3
20260903175924 66 213 0.0 2.0 0.00 0.00 0.00 52 1013.3
20260903175721 66 213 0.0 2.0 0.00 0.00 0.00 53 1013.3
20260903175517 65 213 0.0 2.0 0.00 0.00 0.00 53 1013.3
20260903175124 65 213 0.0 0.0 0.00 0.00 0.00 52 1013.4
20260903174915 65 213 0.0 3.0 0.00 0.00 0.00 52 1013.4
20260903174521 65 217 0.0 4.0 0.00 0.00 0.00 53 1013.4
20260903174134 64 211 0.0 4.0 0.00 0.00 0.00 54 1013.4
20260903173926 64 211 0.0 4.0 0.00 0.00 0.00 54 1013.5
20260903173718 64 163 0.0 4.0 0.00 0.00 0.00 55 1013.4
20260903173508 64 158 0.0 4.0 0.00 0.00 0.00 55 1013.5
20260903173301 63 157 0.0 4.0 0.00 0.00 0.00 55 1013.5
20260903173054 63 157 0.0 4.0 0.00 0.00 0.00 55 1013.5
20260903172842 63 157 0.0 4.0 0.00 0.00 0.00 55 1013.5
20260903172633 63 182 0.0 2.0 0.00 0.00 0.00 55 1013.5
20260903172426 62 182 0.0 1.0 0.00 0.00 0.00 55 1013.5
20260903172216 62 182 0.0 0.0 0.00 0.00 0.00 56 1013.6
20260903171826 62 182 0.0 3.0 0.00 0.00 0.00 56 1013.6
20260903171623 61 182 0.0 3.0 0.00 0.00 0.00 57 1013.7
20260903171413 61 182 0.0 3.0 0.00 0.00 0.00 59 1013.7
20260903171202 61 182 0.0 2.0 0.00 0.00 0.00 59 1013.7
20260903170951 61 178 0.0 2.0 0.00 0.00 0.00 60 1013.7
20260903170738 60 178 0.0 0.0 0.00 0.00 0.00 61 1013.7
20260903170535 60 178 0.0 4.0 0.00 0.00 0.00 60 1013.8
20260903170331 60 167 0.0 4.0 0.00 0.00 0.00 61 1013.7
20260903170127 59 150 0.0 4.0 0.00 0.00 0.00 62 1013.7
20260903165915 59 215 0.0 3.0 0.00 0.00 0.00 62 1013.8
20260903165708 59 244 0.0 3.0 0.00 0.00 0.00 62 1013.8
20260903165503 58 244 0.0 3.0 0.00 0.00 0.00 63 1013.8
20260903165252 58 204 0.0 0.0 0.00 0.00 0.00 64 1013.9
20260903165045 58 204 0.0 0.0 0.00 0.00 0.00 64 1013.9
20260903164840 57 204 0.0 0.0 0.00 0.00 0.00 65 1013.9
20260903164627 57 204 0.0 1.0 0.00 0.00 0.00 67 1013.9
20260903164421 56 204 0.0 1.0 0.00 0.00 0.00 68 1013.9
20260903164212 56 204 0.0 1.0 0.00 0.00 0.00 70 1013.9
20260903163820 55 205 0.0 0.0 0.00 0.00 0.00 70 1013.9
20260903163240 54 205 0.0 4.0 0.00 0.00 0.00 74 1013.9
20260903163032 54 234 0.0 1.0 0.00 0.00 0.00 75 1013.9
20260903162831 54 248 0.0 0.0 0.00 0.00 0.00 76 1013.9
20260903162620 53 248 0.0 1.0 0.00 0.00 0.00 77 1013.9
20260903162408 53 248 0.0 0.0 0.00 0.00 0.00 78 1013.9
20260903162156 53 248 0.0 0.0 0.00 0.00 0.00 78 1014.0
20260903161953 52 248 0.0 0.0 0.00 0.00 0.00 79 1014.0
20260903161741 52 248 0.0 1.0 0.00 0.00 0.00 79 1013.9
20260903161537 52 248 0.0 1.0 0.00 0.00 0.00 80 1013.9
20260903161332 52 248 0.0 3.0 0.00 0.00 0.00 80 1013.9
20260903160941 51 251 0.0 0.0 0.00 0.00 0.00 80 1013.9
20260903160728 51 251 0.0 0.0 0.00 0.00 0.00 80 1013.9
20260903160338 50 251 0.0 0.0 0.00 0.00 0.00 80 1013.9
20260903160128 50 251 0.0 0.0 0.00 0.00 0.00 80 1013.9
20260903155924 50 251 0.0 0.0 0.00 0.00 0.00 80 1014.0
20260903155721 50 251 0.0 0.0 0.00 0.00 0.00 79 1014.0
20260903155512 50 251 0.0 0.0 0.00 0.00 0.00 79 1014.0
20260903155307 50 251 0.0 0.0 0.00 0.00 0.00 79 1014.0
20260903155055 49 251 0.0 0.0 0.00 0.00 0.00 78 1014.0
20260903154848 49 251 0.0 0.0 0.00 0.00 0.00 78 1014.0
20260903154638 49 251 0.0 0.0 0.00 0.00 0.00 78 1014.0
20260903154246 49 251 0.0 0.0 0.00 0.00 0.00 77 1014.0
20260903154037 49 251 0.0 0.0 0.00 0.00 0.00 77 1013.9
20260903153826 49 251 0.0 0.0 0.00 0.00 0.00 77 1014.0
20260903153624 49 251 0.0 0.0 0.00 0.00 0.00 77 1014.0
20260903153414 49 251 0.0 0.0 0.00 0.00 0.00 77 1014.0
20260903153203 48 251 0.0 0.0 0.00 0.00 0.00 76 1014.1
20260903152952 48 251 0.0 0.0 0.00 0.00 0.00 76 1014.1
20260903152746 48 251 0.0 0.0 0.00 0.00 0.00 76 1014.1
20260903152205 48 251 0.0 0.0 0.00 0.00 0.00 76 1014.2
20260903152004 48 251 0.0 0.0 0.00 0.00 0.00 76 1014.2
20260903151429 48 251 0.0 0.0 0.00 0.00 0.00 76 1014.1
20260903151223 48 251 0.0 0.0 0.00 0.00 0.00 75 1014.2
20260903151014 48 251 0.0 0.0 0.00 0.00 0.00 75 1014.1
20260903150804 48 251 0.0 0.0 0.00 0.00 0.00 75 1014.1
20260903150559 48 251 0.0 0.0 0.00 0.00 0.00 75 1014.3
20260903150351 48 251 0.0 0.0 0.00 0.00 0.00 75 1014.3
20260903150138 48 251 0.0 0.0 0.00 0.00 0.00 75 1014.2
20260903145932 48 251 0.0 0.0 0.00 0.00 0.00 75 1014.2
20260903145723 48 251 0.0 0.0 0.00 0.00 0.00 75 1014.2
20260903145514 47 251 0.0 0.0 0.00 0.00 0.00 75 1014.3
20260903145307 47 251 0.0 0.0 0.00 0.00 0.00 75 1014.3
20260903145054 47 251 0.0 0.0 0.00 0.00 0.00 75 1014.3
20260903144704 47 251 0.0 0.0 0.00 0.00 0.00 74 1014.3
20260903144457 47 251 0.0 0.0 0.00 0.00 0.00 74 1014.2
20260903144107 47 251 0.0 0.0 0.00 0.00 0.00 74 1014.3
20260903143858 47 251 0.0 0.0 0.00 0.00 0.00 74 1014.3
20260903143654 47 251 0.0 0.0 0.00 0.00 0.00 74 1014.2
20260903143445 47 251 0.0 0.0 0.00 0.00 0.00 74 1014.2
20260903143240 47 251 0.0 0.0 0.00 0.00 0.00 74 1014.2
20260903143038 47 251 0.0 0.0 0.00 0.00 0.00 74 1014.1
20260903142826 47 251 0.0 0.0 0.00 0.00 0.00 74 1014.1
20260903142618 47 251 0.0 0.0 0.00 0.00 0.00 74 1014.1
20260903142221 47 251 0.0 0.0 0.00 0.00 0.00 74 1014.1
20260903142015 47 251 0.0 0.0 0.00 0.00 0.00 74 1014.0
20260903141618 47 251 0.0 0.0 0.00 0.00 0.00 73 1014.0
20260903141411 47 251 0.0 0.0 0.00 0.00 0.00 73 1014.1
20260903141200 47 251 0.0 0.0 0.00 0.00 0.00 73 1014.0
20260903140953 47 251 0.0 0.0 0.00 0.00 0.00 73 1014.0
20260903140745 47 251 0.0 0.0 0.00 0.00 0.00 73 1014.0
20260903140532 47 251 0.0 0.0 0.00 0.00 0.00 73 1013.9
20260903140320 47 251 0.0 0.0 0.00 0.00 0.00 73 1013.9
20260903140118 47 251 0.0 0.0 0.00 0.00 0.00 73 1013.9
20260903135915 47 251 0.0 0.0 0.00 0.00 0.00 73 1014.0
20260903135708 47 251 0.0 0.0 0.00 0.00 0.00 73 1014.0
20260903135500 47 251 0.0 0.0 0.00 0.00 0.00 73 1014.0
20260903135254 47 251 0.0 0.0 0.00 0.00 0.00 73 1013.9
20260903135047 47 251 0.0 0.0 0.00 0.00 0.00 73 1013.9
20260903134655 47 251 0.0 0.0 0.00 0.00 0.00 73 1013.8
20260903134447 47 251 0.0 0.0 0.00 0.00 0.00 73 1013.8
20260903134245 48 251 0.0 0.0 0.00 0.00 0.00 73 1013.8
20260903133857 47 251 0.0 0.0 0.00 0.00 0.00 73 1013.8
20260903133653 48 251 0.0 0.0 0.00 0.00 0.00 73 1013.8
20260903133448 48 251 0.0 0.0 0.00 0.00 0.00 73 1013.8
20260903133240 48 251 0.0 0.0 0.00 0.00 0.00 73 1013.8
20260903133039 48 251 0.0 0.0 0.00 0.00 0.00 72 1013.8
20260903132835 48 251 0.0 0.0 0.00 0.00 0.00 72 1013.7
20260903132257 48 251 0.0 0.0 0.00 0.00 0.00 72 1013.8
20260903131626 48 251 0.0 0.0 0.00 0.00 0.00 72 1013.7
20260903131417 48 251 0.0 0.0 0.00 0.00 0.00 72 1013.8
20260903131214 48 251 0.0 0.0 0.00 0.00 0.00 72 1013.8
20260903130826 48 251 0.0 0.0 0.00 0.00 0.00 72 1013.8
20260903130618 48 251 0.0 0.0 0.00 0.00 0.00 72 1013.8
20260903130415 48 251 0.0 0.0 0.00 0.00 0.00 72 1013.8
20260903130026 48 251 0.0 0.0 0.00 0.00 0.00 72 1013.8
20260903125823 48 251 0.0 0.0 0.00 0.00 0.00 72 1013.8
20260903125619 48 251 0.0 0.0 0.00 0.00 0.00 72 1013.8
20260903125415 48 251 0.0 0.0 0.00 0.00 0.00 72 1013.8
20260903125210 48 251 0.0 0.0 0.00 0.00 0.00 72 1013.8
20260903125000 48 251 0.0 0.0 0.00 0.00 0.00 72 1013.8
20260903124756 48 251 0.0 0.0 0.00 0.00 0.00 71 1013.8
20260903124543 48 251 0.0 0.0 0.00 0.00 0.00 71 1013.8
20260903124337 48 251 0.0 0.0 0.00 0.00 0.00 71 1013.9
20260903124131 48 251 0.0 0.0 0.00 0.00 0.00 71 1013.9
20260903123921 48 251 0.0 0.0 0.00 0.00 0.00 71 1013.9
20260903123719 48 251 0.0 0.0 0.00 0.00 0.00 71 1013.9
20260903123513 48 251 0.0 0.0 0.00 0.00 0.00 71 1014.0
20260903123303 48 251 0.0 0.0 0.00 0.00 0.00 71 1014.0
20260903123100 48 251 0.0 0.0 0.00 0.00 0.00 71 1014.0
20260903122857 48 251 0.0 0.0 0.00 0.00 0.00 71 1014.0
20260903122645 48 251 0.0 0.0 0.00 0.00 0.00 71 1014.0
20260903122434 48 251 0.0 0.0 0.00 0.00 0.00 71 1014.0
20260903122225 48 251 0.0 0.0 0.00 0.00 0.00 71 1014.0
20260903122021 48 251 0.0 0.0 0.00 0.00 0.00 71 1014.0
20260903121624 48 251 0.0 0.0 0.00 0.00 0.00 71 1014.0
20260903121423 48 251 0.0 0.0 0.00 0.00 0.00 71 1013.9
20260903121215 48 251 0.0 0.0 0.00 0.00 0.00 70 1013.9
20260903120819 48 251 0.0 0.0 0.00 0.00 0.00 70 1014.0
20260903120424 48 251 0.0 0.0 0.00 0.00 0.00 70 1014.0
20260903120214 49 251 0.0 0.0 0.00 0.00 0.00 70 1014.0
20260903120005 49 251 0.0 0.0 0.00 0.00 0.00 70 1014.0
20260903115756 49 251 0.0 0.0 0.00 0.00 0.00 70 1014.0
20260903115405 49 251 0.0 0.0 0.00 0.00 0.00 70 1014.0
20260903115153 49 251 0.0 0.0 0.00 0.00 0.00 70 1014.0
20260903114944 49 251 0.0 0.0 0.00 0.00 0.00 70 1014.0
20260903114737 49 251 0.0 0.0 0.00 0.00 0.00 70 1014.0
20260903114530 49 251 0.0 0.0 0.00 0.00 0.00 70 1014.0
20260903114328 49 251 0.0 0.0 0.00 0.00 0.00 70 1014.0
20260903114122 49 251 0.0 0.0 0.00 0.00 0.00 70 1014.0
20260903113915 49 251 0.0 0.0 0.00 0.00 0.00 70 1014.0
20260903113709 49 251 0.0 0.0 0.00 0.00 0.00 70 1014.0
20260903113456 49 251 0.0 0.0 0.00 0.00 0.00 70 1014.0
20260903113247 49 251 0.0 0.0 0.00 0.00 0.00 70 1014.0
20260903113042 49 251 0.0 0.0 0.00 0.00 0.00 70 1014.1
20260903112837 49 251 0.0 0.0 0.00 0.00 0.00 70 1014.1
20260903112627 49 251 0.0 0.0 0.00 0.00 0.00 70 1014.0
20260903112414 49 251 0.0 0.0 0.00 0.00 0.00 70 1014.1
20260903112210 49 251 0.0 0.0 0.00 0.00 0.00 70 1014.1
20260903112000 49 251 0.0 0.0 0.00 0.00 0.00 70 1014.1
20260903111754 49 251 0.0 0.0 0.00 0.00 0.00 70 1014.1
20260903111541 49 251 0.0 0.0 0.00 0.00 0.00 69 1014.2
20260903111336 49 251 0.0 0.0 0.00 0.00 0.00 69 1014.2
20260903111131 49 251 0.0 0.0 0.00 0.00 0.00 69 1014.2
20260903110921 49 251 0.0 0.0 0.00 0.00 0.00 69 1014.2
20260903110719 49 251 0.0 0.0 0.00 0.00 0.00 69 1014.2
20260903110512 49 251 0.0 0.0 0.00 0.00 0.00 69 1014.2
20260903110125 49 251 0.0 0.0 0.00 0.00 0.00 69 1014.2
20260903105727 49 251 0.0 0.0 0.00 0.00 0.00 69 1014.3
20260903105525 49 251 0.0 0.0 0.00 0.00 0.00 69 1014.2
20260903105319 49 251 0.0 0.0 0.00 0.00 0.00 69 1014.2
20260903105113 49 251 0.0 0.0 0.00 0.00 0.00 69 1014.3
20260903104904 49 251 0.0 0.0 0.00 0.00 0.00 69 1014.3
20260903104654 49 251 0.0 0.0 0.00 0.00 0.00 69 1014.2
20260903104444 49 251 0.0 0.0 0.00 0.00 0.00 69 1014.3
20260903104057 49 251 0.0 0.0 0.00 0.00 0.00 69 1014.3
20260903103855 49 251 0.0 0.0 0.00 0.00 0.00 69 1014.3
20260903103648 49 251 0.0 0.0 0.00 0.00 0.00 69 1014.3
20260903103117 49 251 0.0 0.0 0.00 0.00 0.00 69 1014.3
20260903102915 49 251 0.0 0.0 0.00 0.00 0.00 69 1014.3
20260903102712 49 251 0.0 0.0 0.00 0.00 0.00 69 1014.3
20260903102510 49 251 0.0 0.0 0.00 0.00 0.00 68 1014.4
20260903102305 50 251 0.0 0.0 0.00 0.00 0.00 68 1014.3
20260903102054 50 251 0.0 0.0 0.00 0.00 0.00 68 1014.4
20260903101842 50 251 0.0 0.0 0.00 0.00 0.00 68 1014.4
20260903101634 50 251 0.0 0.0 0.00 0.00 0.00 68 1014.4
20260903101421 50 251 0.0 0.0 0.00 0.00 0.00 68 1014.4
20260903101215 50 251 0.0 0.0 0.00 0.00 0.00 68 1014.4
20260903101008 50 251 0.0 0.0 0.00 0.00 0.00 68 1014.4
20260903100758 50 251 0.0 0.0 0.00 0.00 0.00 68 1014.4
20260903100405 50 251 0.0 0.0 0.00 0.00 0.00 68 1014.4
20260903100156 50 251 0.0 0.0 0.00 0.00 0.00 68 1014.3
20260903095804 50 251 0.0 0.0 0.00 0.00 0.00 68 1014.3
20260903095555 50 251 0.0 0.0 0.00 0.00 0.00 68 1014.3
20260903095344 50 251 0.0 0.0 0.00 0.00 0.00 68 1014.4
20260903095138 50 251 0.0 0.0 0.00 0.00 0.00 68 1014.4
20260903094930 50 251 0.0 0.0 0.00 0.00 0.00 68 1014.4
20260903094717 50 251 0.0 0.0 0.00 0.00 0.00 68 1014.4
20260903094511 50 251 0.0 0.0 0.00 0.00 0.00 68 1014.4
20260903094302 50 251 0.0 0.0 0.00 0.00 0.00 68 1014.4
20260903094100 50 251 0.0 0.0 0.00 0.00 0.00 68 1014.4
20260903093855 50 251 0.0 0.0 0.00 0.00 0.00 67 1014.4
20260903093643 50 251 0.0 0.0 0.00 0.00 0.00 67 1014.4
20260903093432 50 251 0.0 0.0 0.00 0.00 0.00 67 1014.4
20260903093221 50 251 0.0 0.0 0.00 0.00 0.00 67 1014.4
20260903092827 50 251 0.0 0.0 0.00 0.00 0.00 67 1014.4
20260903092615 50 251 0.0 0.0 0.00 0.00 0.00 67 1014.5
20260903092402 50 251 0.0 0.0 0.00 0.00 0.00 67 1014.5
20260903092158 50 251 0.0 0.0 0.00 0.00 0.00 67 1014.5
20260903091952 50 251 0.0 0.0 0.00 0.00 0.00 67 1014.5
20260903091744 50 251 0.0 0.0 0.00 0.00 0.00 67 1014.6
20260903091532 50 251 0.0 0.0 0.00 0.00 0.00 67 1014.5
20260903091322 50 251 0.0 0.0 0.00 0.00 0.00 67 1014.5
20260903090929 50 251 0.0 0.0 0.00 0.00 0.00 67 1014.5
20260903090721 50 251 0.0 0.0 0.00 0.00 0.00 67 1014.5
20260903090510 50 251 0.0 0.0 0.00 0.00 0.00 67 1014.5
20260903090045 50 251 0.0 0.0 0.00 0.00 0.00 67 1014.5
20260903085837 50 251 0.0 0.0 0.00 0.00 0.00 67 1014.5
20260903085624 50 251 0.0 0.0 0.00 0.00 0.00 67 1014.5
20260903085414 50 251 0.0 0.0 0.00 0.00 0.00 66 1014.6
20260903085208 50 251 0.0 0.0 0.00 0.00 0.00 66 1014.6
20260903084959 50 251 0.0 0.0 0.00 0.00 0.00 66 1014.7
20260903084752 51 251 0.0 0.0 0.00 0.00 0.00 66 1014.7
20260903084549 51 251 0.0 0.0 0.00 0.00 0.00 66 1014.7
20260903084337 51 251 0.0 0.0 0.00 0.00 0.00 66 1014.7
20260903084127 51 251 0.0 0.0 0.00 0.00 0.00 66 1014.7
20260903083921 51 251 0.0 0.0 0.00 0.00 0.00 66 1014.7
20260903083712 51 251 0.0 0.0 0.00 0.00 0.00 66 1014.7
20260903083504 51 251 0.0 0.0 0.00 0.00 0.00 66 1014.7
20260903083257 51 251 0.0 0.0 0.00 0.00 0.00 66 1014.7
20260903083051 51 251 0.0 0.0 0.00 0.00 0.00 66 1014.7
20260903082654 51 251 0.0 0.0 0.00 0.00 0.00 66 1014.8
20260903082448 51 251 0.0 0.0 0.00 0.00 0.00 66 1014.7
20260903082054 51 251 0.0 0.0 0.00 0.00 0.00 66 1014.8
20260903081847 51 251 0.0 0.0 0.00 0.00 0.00 66 1014.8
20260903081640 51 251 0.0 0.0 0.00 0.00 0.00 65 1014.7
20260903081437 51 251 0.0 0.0 0.00 0.00 0.00 65 1014.7
20260903081228 51 251 0.0 0.0 0.00 0.00 0.00 65 1014.7
20260903081019 51 251 0.0 0.0 0.00 0.00 0.00 65 1014.7
20260903080629 51 251 0.0 0.0 0.00 0.00 0.00 65 1014.7
20260903080422 51 251 0.0 0.0 0.00 0.00 0.00 65 1014.7
20260903080217 51 251 0.0 0.0 0.00 0.00 0.00 65 1014.8
20260903080008 51 251 0.0 0.0 0.00 0.00 0.00 65 1014.8
20260903075800 51 251 0.0 0.0 0.00 0.00 0.00 65 1014.8
20260903075407 51 251 0.0 0.0 0.00 0.00 0.00 65 1014.9
20260903075201 51 251 0.0 0.0 0.00 0.00 0.00 65 1014.8
20260903074955 51 251 0.0 0.0 0.00 0.00 0.00 65 1014.8
20260903074606 52 251 0.0 0.0 0.00 0.00 0.00 64 1014.8
20260903074355 52 251 0.0 0.0 0.00 0.00 0.00 64 1014.8
20260903074007 52 251 0.0 0.0 0.00 0.00 0.00 64 1014.8
20260903073618 52 251 0.0 0.0 0.00 0.00 0.00 64 1014.8
20260903073412 52 251 0.0 0.0 0.00 0.00 0.00 64 1014.8
20260903073202 52 251 0.0 0.0 0.00 0.00 0.00 64 1014.7
20260903072958 52 251 0.0 0.0 0.00 0.00 0.00 64 1014.8
20260903072746 52 251 0.0 0.0 0.00 0.00 0.00 64 1014.7
20260903072539 52 251 0.0 0.0 0.00 0.00 0.00 64 1014.7
20260903072333 52 251 0.0 0.0 0.00 0.00 0.00 64 1014.7
20260903072122 52 251 0.0 0.0 0.00 0.00 0.00 64 1014.7
20260903071354 52 251 0.0 0.0 0.00 0.00 0.00 63 1014.8
20260903071142 52 251 0.0 0.0 0.00 0.00 0.00 63 1014.7
20260903070938 52 251 0.0 0.0 0.00 0.00 0.00 63 1014.8
20260903070726 52 251 0.0 0.0 0.00 0.00 0.00 63 1014.7
20260903070522 52 251 0.0 0.0 0.00 0.00 0.00 63 1014.8
20260903070124 52 251 0.0 0.0 0.00 0.00 0.00 63 1014.7
20260903065915 52 251 0.0 0.0 0.00 0.00 0.00 63 1014.7
20260903065710 53 251 0.0 0.0 0.00 0.00 0.00 62 1014.8
20260903065506 53 251 0.0 0.0 0.00 0.00 0.00 62 1014.8
20260903065253 53 251 0.0 0.0 0.00 0.00 0.00 62 1014.7
20260903065051 53 251 0.0 0.0 0.00 0.00 0.00 62 1014.8
20260903064838 53 251 0.0 0.0 0.00 0.00 0.00 62 1014.7
20260903064629 53 251 0.0 0.0 0.00 0.00 0.00 62 1014.7
20260903064423 53 251 0.0 0.0 0.00 0.00 0.00 62 1014.7
20260903064217 53 251 0.0 0.0 0.00 0.00 0.00 62 1014.7
20260903064012 53 251 0.0 0.0 0.00 0.00 0.00 61 1014.7
20260903063802 53 251 0.0 0.0 0.00 0.00 0.00 62 1014.7
20260903063414 53 251 0.0 0.0 0.00 0.00 0.00 61 1014.7
20260903063211 53 251 0.0 0.0 0.00 0.00 0.00 61 1014.7
20260903063004 53 251 0.0 0.0 0.00 0.00 0.00 61 1014.7
20260903062757 53 251 0.0 0.0 0.00 0.00 0.00 61 1014.7
20260903062552 53 251 0.0 0.0 0.00 0.00 0.00 61 1014.7
20260903062339 53 251 0.0 0.0 0.00 0.00 0.00 61 1014.7
20260903062127 53 251 0.0 0.0 0.00 0.00 0.00 60 1014.6
20260903061921 53 251 0.0 0.0 0.00 0.00 0.00 60 1014.6
20260903061711 54 251 0.0 0.0 0.00 0.00 0.00 60 1014.7
20260903061508 54 251 0.0 0.0 0.00 0.00 0.00 60 1014.7
20260903061115 54 251 0.0 0.0 0.00 0.00 0.00 60 1014.7
20260903060723 54 251 0.0 0.0 0.00 0.00 0.00 60 1014.7
20260903060510 54 251 0.0 0.0 0.00 0.00 0.00 60 1014.8
20260903060113 54 251 0.0 0.0 0.00 0.00 0.00 59 1014.9
20260903055908 54 251 0.0 0.0 0.00 0.00 0.00 59 1014.9
20260903055701 54 251 0.0 0.0 0.00 0.00 0.00 59 1014.9
20260903055453 54 251 0.0 0.0 0.00 0.00 0.00 59 1014.9
20260903055245 54 251 0.0 0.0 0.00 0.00 0.00 59 1014.9
20260903055043 54 251 0.0 0.0 0.00 0.00 0.00 59 1014.9
20260903054837 54 251 0.0 0.0 0.00 0.00 0.00 59 1014.9
20260903054625 55 251 0.0 0.0 0.00 0.00 0.00 59 1014.8
20260903054419 55 251 0.0 0.0 0.00 0.00 0.00 59 1014.8
20260903054209 55 251 0.0 0.0 0.00 0.00 0.00 59 1014.9
20260903054000 55 251 0.0 0.0 0.00 0.00 0.00 58 1014.9
20260903053756 55 251 0.0 0.0 0.00 0.00 0.00 58 1015.0
20260903053550 55 251 0.0 0.0 0.00 0.00 0.00 58 1015.0
20260903053156 55 251 0.0 0.0 0.00 0.00 0.00 58 1015.0
20260903052953 55 251 0.0 0.0 0.00 0.00 0.00 58 1015.0
20260903052419 55 251 0.0 0.0 0.00 0.00 0.00 58 1015.2
20260903052210 55 251 0.0 0.0 0.00 0.00 0.00 58 1015.1
20260903051958 56 251 0.0 0.0 0.00 0.00 0.00 58 1015.2
20260903051748 56 251 0.0 0.0 0.00 0.00 0.00 57 1015.1
20260903051538 56 251 0.0 0.0 0.00 0.00 0.00 57 1015.1
20260903051331 56 251 0.0 0.0 0.00 0.00 0.00 57 1015.1
20260903051122 56 251 0.0 0.0 0.00 0.00 0.00 57 1015.1
20260903050912 56 251 0.0 0.0 0.00 0.00 0.00 57 1015.1
20260903050708 56 251 0.0 0.0 0.00 0.00 0.00 57 1015.1
20260903050503 56 251 0.0 0.0 0.00 0.00 0.00 56 1015.1
20260903050302 56 251 0.0 0.0 0.00 0.00 0.00 56 1015.2
20260903045906 56 251 0.0 0.0 0.00 0.00 0.00 56 1015.2
20260903045701 57 251 0.0 0.0 0.00 0.00 0.00 56 1015.2
20260903045312 57 251 0.0 0.0 0.00 0.00 0.00 56 1015.3
20260903045103 57 251 0.0 0.0 0.00 0.00 0.00 56 1015.2
20260903044850 57 251 0.0 0.0 0.00 0.00 0.00 55 1015.3
20260903044644 57 251 0.0 0.0 0.00 0.00 0.00 55 1015.3
20260903044252 57 251 0.0 0.0 0.00 0.00 0.00 55 1015.2
20260903044039 57 251 0.0 0.0 0.00 0.00 0.00 55 1015.2
20260903043651 57 251 0.0 0.0 0.00 0.00 0.00 55 1015.2
20260903043440 57 251 0.0 0.0 0.00 0.00 0.00 55 1015.2
20260903043231 58 251 0.0 0.0 0.00 0.00 0.00 54 1015.1
20260903042841 58 251 0.0 0.0 0.00 0.00 0.00 54 1015.2
20260903042635 58 251 0.0 0.0 0.00 0.00 0.00 54 1015.1
20260903042055 58 251 0.0 0.0 0.00 0.00 0.00 53 1015.1
20260903041850 58 251 0.0 0.0 0.00 0.00 0.00 53 1015.1
20260903041646 58 251 0.0 0.0 0.00 0.00 0.00 53 1015.1
20260903041439 58 251 0.0 0.0 0.00 0.00 0.00 53 1015.1
20260903041230 58 251 0.0 0.0 0.00 0.00 0.00 53 1015.1
20260903041021 59 251 0.0 0.0 0.00 0.00 0.00 52 1015.0
20260903040813 59 251 0.0 0.0 0.00 0.00 0.00 52 1015.0
20260903040600 59 251 0.0 0.0 0.00 0.00 0.00 52 1015.0
20260903040356 59 251 0.0 0.0 0.00 0.00 0.00 52 1015.0
20260903040150 59 251 0.0 0.0 0.00 0.00 0.00 52 1015.0
20260903035946 59 251 0.0 0.0 0.00 0.00 0.00 52 1015.0
20260903035550 59 251 0.0 0.0 0.00 0.00 0.00 51 1015.0
20260903035344 60 251 0.0 0.0 0.00 0.00 0.00 51 1015.0
20260903035142 60 251 0.0 0.0 0.00 0.00 0.00 51 1014.9
20260903034939 60 251 0.0 0.0 0.00 0.00 0.00 51 1014.9
20260903034727 60 251 0.0 0.0 0.00 0.00 0.00 50 1014.9
20260903034522 60 251 0.0 0.0 0.00 0.00 0.00 50 1014.9
20260903034311 60 251 0.0 0.0 0.00 0.00 0.00 50 1014.8
20260903034059 61 251 0.0 0.0 0.00 0.00 0.00 50 1014.8
20260903033853 61 251 0.0 0.0 0.00 0.00 0.00 50 1014.7
20260903033642 61 251 0.0 0.0 0.00 0.00 0.00 49 1014.8
20260903033438 61 251 0.0 0.0 0.00 0.00 0.00 49 1014.7
20260903033226 61 251 0.0 0.0 0.00 0.00 0.00 49 1014.7
20260903033022 61 251 0.0 0.0 0.00 0.00 0.00 49 1014.7
20260903032820 62 251 0.0 0.0 0.00 0.00 0.00 48 1014.6
20260903032618 62 251 0.0 0.0 0.00 0.00 0.00 48 1014.6
20260903032409 62 251 0.0 0.0 0.00 0.00 0.00 48 1014.6
20260903032201 62 251 0.0 0.0 0.00 0.00 0.00 48 1014.6
20260903031955 63 251 0.0 0.0 0.00 0.00 0.00 48 1014.5
20260903031745 63 251 0.0 0.0 0.00 0.00 0.00 47 1014.5
20260903031348 63 251 0.0 0.0 0.00 0.00 0.00 47 1014.5
20260903031142 64 251 0.0 0.0 0.00 0.00 0.00 47 1014.5
20260903030934 64 251 0.0 0.0 0.00 0.00 0.00 47 1014.5
20260903030726 64 251 0.0 0.0 0.00 0.00 0.00 47 1014.5
20260903030524 64 251 0.0 0.0 0.00 0.00 0.00 46 1014.5
20260903030133 65 251 0.0 0.0 0.00 0.00 0.00 46 1014.5
20260903025922 65 251 0.0 0.0 0.00 0.00 0.00 46 1014.5
20260903025712 65 251 0.0 0.0 0.00 0.00 0.00 46 1014.4
20260903025501 65 251 0.0 0.0 0.00 0.00 0.00 45 1014.4
20260903025254 66 251 0.0 0.0 0.00 0.00 0.00 45 1014.4
20260903025047 66 251 0.0 0.0 0.00 0.00 0.00 45 1014.3
20260903024840 66 251 0.0 0.0 0.00 0.00 0.00 45 1014.3
20260903024630 66 251 0.0 0.0 0.00 0.00 0.00 44 1014.3
20260903024426 66 251 0.0 0.0 0.00 0.00 0.00 45 1014.3
20260903024220 66 251 0.0 0.0 0.00 0.00 0.00 44 1014.3
20260903024009 67 251 0.0 0.0 0.00 0.00 0.00 44 1014.3
20260903023806 67 251 0.0 0.0 0.00 0.00 0.00 44 1014.3
20260903023556 67 251 0.0 0.0 0.00 0.00 0.00 44 1014.3
20260903023208 67 251 0.0 0.0 0.00 0.00 0.00 44 1014.3
20260903023003 67 251 0.0 0.0 0.00 0.00 0.00 44 1014.3
20260903022609 68 251 0.0 0.0 0.00 0.00 0.00 44 1014.4
20260903022402 68 251 0.0 0.0 0.00 0.00 0.00 44 1014.4
20260903022151 68 251 0.0 0.0 0.00 0.00 0.00 44 1014.4
20260903021943 68 251 0.0 0.0 0.00 0.00 0.00 44 1014.4
20260903021738 68 251 0.0 0.0 0.00 0.00 0.00 44 1014.4
20260903021526 68 251 0.0 0.0 0.00 0.00 0.00 44 1014.4
20260903021324 68 251 0.0 0.0 0.00 0.00 0.00 43 1014.4
20260903021119 68 251 0.0 0.0 0.00 0.00 0.00 43 1014.3
20260903020915 68 251 0.0 0.0 0.00 0.00 0.00 43 1014.3
20260903020705 69 251 0.0 0.0 0.00 0.00 0.00 43 1014.3
20260903020457 69 251 0.0 0.0 0.00 0.00 0.00 43 1014.3
20260903020250 69 251 0.0 0.0 0.00 0.00 0.00 43 1014.3
20260903015853 69 251 0.0 0.0 0.00 0.00 0.00 42 1014.3
20260903015645 69 251 0.0 0.0 0.00 0.00 0.00 43 1014.3
20260903015436 69 251 0.0 0.0 0.00 0.00 0.00 42 1014.3
20260903015227 69 251 0.0 4.0 0.00 0.00 0.00 41 1014.3
20260903015021 69 251 0.0 4.0 0.00 0.00 0.00 42 1014.3
20260903014626 69 225 0.0 2.0 0.00 0.00 0.00 41 1014.2
20260903014416 70 225 0.0 2.0 0.00 0.00 0.00 41 1014.3
20260903014026 70 225 0.0 1.0 0.00 0.00 0.00 42 1014.3
20260903013818 70 225 0.0 0.0 0.00 0.00 0.00 41 1014.3
20260903013606 70 225 0.0 0.0 0.00 0.00 0.00 41 1014.3
20260903013355 70 225 0.0 1.0 0.00 0.00 0.00 41 1014.2
20260903013144 70 225 0.0 1.0 0.00 0.00 0.00 41 1014.2
20260903012932 70 225 0.0 0.0 0.00 0.00 0.00 41 1014.2
20260903012723 71 225 0.0 0.0 0.00 0.00 0.00 40 1014.2
20260903012511 71 225 0.0 0.0 0.00 0.00 0.00 40 1014.2
20260903012259 71 225 0.0 4.0 0.00 0.00 0.00 40 1014.2
20260903012056 71 225 0.0 4.0 0.00 0.00 0.00 40 1014.2
20260903011843 71 225 0.0 4.0 0.00 0.00 0.00 40 1014.2
20260903011638 71 228 0.0 4.0 0.00 0.00 0.00 39 1014.2
20260903011431 71 228 0.0 4.0 0.00 0.00 0.00 39 1014.2
20260903011220 71 286 0.0 1.0 0.00 0.00 0.00 40 1014.2
20260903011010 72 287 0.0 0.0 0.00 0.00 0.00 39 1014.2